GW3580 Weather Reports


Display with metric or nautical units.
time (UTC)temp
F
wind
direction
speed
MPH
gust
MPH
rain 1hr
in
rain 24hr
in
rain mn
in
humidity
%
barometer
mb
20260506230208 78 69 3.0 5.0 0.00 0.00 0.00 40 1015.9
20260506225704 78 23 2.0 2.0 0.00 0.00 0.00 41 1016.1
20260506225201 78 246 1.0 2.0 0.00 0.00 0.00 41 1016.4
20260506224657 78 263 2.0 2.0 0.00 0.00 0.00 40 1016.3
20260506224154 78 210 2.0 2.0 0.00 0.00 0.00 40 1016.4
20260506223650 77 16 1.0 1.0 0.00 0.00 0.00 41 1016.4
20260506223146 77 241 2.0 4.0 0.00 0.00 0.00 41 1016.6
20260506222643 77 251 1.0 1.0 0.00 0.00 0.00 43 1016.6
20260506222139 76 249 1.0 2.0 0.00 0.00 0.00 41 1016.7
20260506221637 76 264 4.0 5.0 0.00 0.00 0.00 41 1016.6
20260506221135 75 55 1.0 2.0 0.00 0.00 0.00 42 1016.8
20260506220632 75 280 0.0 1.0 0.00 0.00 0.00 42 1016.7
20260506220127 75 41 3.0 5.0 0.00 0.00 0.00 41 1016.9
20260506215624 74 220 2.0 2.0 0.00 0.00 0.00 42 1017.0
20260506215119 75 246 2.0 4.0 0.00 0.00 0.00 41 1017.1
20260506214616 76 278 1.0 1.0 0.00 0.00 0.00 42 1017.1
20260506214114 77 275 2.0 2.0 0.00 0.00 0.00 40 1017.1
20260506213612 77 269 1.0 1.0 0.00 0.00 0.00 42 1017.5
20260506213109 75 0 1.0 1.0 0.00 0.00 0.00 40 1017.2
20260506212606 75 254 4.0 6.0 0.00 0.00 0.00 41 1017.3
20260506212101 76 278 1.0 1.0 0.00 0.00 0.00 41 1017.4
20260506211557 76 318 0.0 1.0 0.00 0.00 0.00 40 1017.5
20260506211054 74 56 3.0 4.0 0.00 0.00 0.00 40 1017.4
20260506210550 75 302 2.0 2.0 0.00 0.00 0.00 41 1017.5
20260506210047 74 308 0.0 1.0 0.00 0.00 0.00 41 1017.6
20260506205544 76 135 0.0 1.0 0.00 0.00 0.00 40 1017.6
20260506205039 75 268 1.0 1.0 0.00 0.00 0.00 41 1017.7
20260506204537 75 23 2.0 2.0 0.00 0.00 0.00 40 1017.6
20260506204034 75 46 1.0 2.0 0.00 0.00 0.00 40 1017.6
20260506203532 74 42 1.0 1.0 0.00 0.00 0.00 40 1017.6
20260506203028 74 334 2.0 2.0 0.00 0.00 0.00 43 1018.0
20260506202526 73 316 1.0 1.0 0.00 0.00 0.00 43 1017.9
20260506202022 72 246 1.0 2.0 0.00 0.00 0.00 44 1017.9
20260506201520 74 269 4.0 5.0 0.00 0.00 0.00 41 1018.0
20260506201016 73 251 3.0 4.0 0.00 0.00 0.00 44 1018.2
20260506200512 72 246 2.0 2.0 0.00 0.00 0.00 47 1018.0
20260506200009 71 224 0.0 0.0 0.00 0.00 0.00 48 1018.1
20260506195507 72 261 3.0 4.0 0.00 0.00 0.00 47 1018.4
20260506195002 72 49 3.0 4.0 0.00 0.00 0.00 46 1018.3
20260506194500 73 21 2.0 2.0 0.00 0.00 0.00 46 1018.2
20260506193956 72 5 2.0 2.0 0.00 0.00 0.00 46 1018.6
20260506193454 72 290 1.0 1.0 0.00 0.00 0.00 47 1018.5
20260506192950 72 264 1.0 2.0 0.00 0.00 0.00 48 1018.7
20260506192448 72 281 2.0 4.0 0.00 0.00 0.00 45 1018.3
20260506191944 70 128 0.0 1.0 0.00 0.00 0.00 48 1018.7
20260506191440 70 280 5.0 6.0 0.00 0.00 0.00 49 1018.7
20260506190937 70 47 1.0 2.0 0.00 0.00 0.00 50 1018.8
20260506190434 69 230 2.0 2.0 0.00 0.00 0.00 51 1018.8
20260506185931 70 255 1.0 4.0 0.00 0.00 0.00 50 1018.7
20260506185428 69 239 4.0 5.0 0.00 0.00 0.00 52 1018.8
20260506184925 70 239 3.0 4.0 0.00 0.00 0.00 51 1019.0
20260506184422 70 278 3.0 4.0 0.00 0.00 0.00 52 1018.9
20260506183919 71 33 0.0 0.0 0.00 0.00 0.00 49 1018.8
20260506183414 69 275 2.0 2.0 0.00 0.00 0.00 51 1019.1
20260506182912 69 22 1.0 1.0 0.00 0.00 0.00 49 1019.1
20260506182409 68 248 1.0 1.0 0.00 0.00 0.00 53 1019.0
20260506181906 68 243 1.0 1.0 0.00 0.00 0.00 55 1019.1
20260506181404 68 276 2.0 4.0 0.00 0.00 0.00 56 1019.1
20260506180901 68 297 3.0 4.0 0.00 0.00 0.00 57 1018.9
20260506180357 69 310 2.0 2.0 0.00 0.00 0.00 55 1018.9
20260506175854 68 342 0.0 1.0 0.00 0.00 0.00 58 1019.1
20260506175350 66 261 1.0 2.0 0.00 0.00 0.00 59 1019.1
20260506174847 66 261 3.0 4.0 0.00 0.00 0.00 60 1019.2
20260506174345 66 228 1.0 2.0 0.00 0.00 0.00 60 1019.1
20260506173842 67 239 1.0 1.0 0.00 0.00 0.00 60 1019.3
20260506173339 66 63 1.0 1.0 0.00 0.00 0.00 61 1019.2
20260506172836 67 279 2.0 2.0 0.00 0.00 0.00 61 1019.0
20260506172333 66 2 0.0 1.0 0.00 0.00 0.00 61 1019.2
20260506171830 65 244 2.0 2.0 0.00 0.00 0.00 64 1019.2
20260506171327 64 274 2.0 2.0 0.00 0.00 0.00 67 1019.2
20260506170825 64 257 3.0 4.0 0.00 0.00 0.00 67 1019.2
20260506170320 63 321 2.0 2.0 0.00 0.00 0.00 67 1019.3
20260506165820 63 271 2.0 4.0 0.00 0.00 0.00 68 1019.3
20260506165317 63 26 0.0 1.0 0.00 0.00 0.00 68 1019.2
20260506164813 63 343 0.0 0.0 0.00 0.00 0.00 68 1019.2
20260506164310 63 266 1.0 1.0 0.00 0.00 0.00 68 1019.4
20260506163807 62 279 1.0 2.0 0.00 0.00 0.00 70 1019.4
20260506163302 62 0 0.0 0.0 0.00 0.00 0.00 71 1019.4
20260506162758 61 244 1.0 1.0 0.00 0.00 0.00 72 1019.3
20260506162256 62 258 1.0 1.0 0.00 0.00 0.00 71 1019.4
20260506161753 60 284 2.0 2.0 0.00 0.00 0.00 73 1019.5
20260506161250 61 342 1.0 1.0 0.00 0.00 0.00 73 1019.5
20260506160748 60 43 0.0 1.0 0.00 0.00 0.00 75 1019.5
20260506160244 59 234 1.0 1.0 0.00 0.00 0.00 75 1019.6
20260506155743 59 291 2.0 2.0 0.00 0.00 0.00 76 1019.6
20260506155239 59 134 1.0 1.0 0.00 0.00 0.00 76 1019.4
20260506153347 57 259 3.0 4.0 0.00 0.00 0.00 79 1019.7
20260506152843 57 280 2.0 2.0 0.00 0.00 0.00 79 1019.6
20260506152341 57 255 2.0 2.0 0.00 0.00 0.00 79 1019.4
20260506151839 57 269 3.0 5.0 0.00 0.00 0.00 79 1019.6
20260506151335 56 358 0.0 0.0 0.00 0.00 0.00 81 1019.5
20260506150833 56 35 0.0 0.0 0.00 0.00 0.00 81 1019.4
20260506150329 55 290 1.0 1.0 0.00 0.00 0.00 81 1019.5
20260506145826 55 269 1.0 1.0 0.00 0.00 0.00 82 1019.7
20260506145322 54 267 3.0 4.0 0.00 0.00 0.00 83 1019.5
20260506144820 54 256 2.0 2.0 0.00 0.00 0.00 83 1019.5
20260506144317 54 350 0.0 0.0 0.00 0.00 0.00 84 1019.6
20260506143815 54 273 2.0 2.0 0.00 0.00 0.00 85 1019.4
20260506143312 53 278 0.0 0.0 0.00 0.00 0.00 86 1019.4
20260506142810 53 236 1.0 2.0 0.00 0.00 0.00 86 1019.4
20260506142308 53 273 0.0 1.0 0.00 0.00 0.00 86 1019.2
20260506141806 53 328 0.0 0.0 0.00 0.00 0.00 87 1019.2
20260506141303 52 18 0.0 0.0 0.00 0.00 0.00 88 1019.2
20260506140801 52 17 0.0 0.0 0.00 0.00 0.00 88 1019.3
20260506140258 52 20 0.0 0.0 0.00 0.00 0.00 88 1019.1
20260506135755 52 356 0.0 0.0 0.00 0.00 0.00 88 1019.0
20260506135251 51 292 0.0 0.0 0.00 0.00 0.00 88 1018.9
20260506134748 51 286 1.0 1.0 0.00 0.00 0.00 88 1019.1
20260506134244 51 8 0.0 0.0 0.00 0.00 0.00 88 1018.9
20260506133741 51 2 0.0 0.0 0.00 0.00 0.00 88 1018.9
20260506133238 51 313 0.0 0.0 0.00 0.00 0.00 88 1018.6
20260506132735 51 274 0.0 0.0 0.00 0.00 0.00 88 1018.9
20260506132232 50 284 0.0 0.0 0.00 0.00 0.00 88 1018.7
20260506131730 51 284 0.0 0.0 0.00 0.00 0.00 88 1018.8
20260506131226 51 284 0.0 0.0 0.00 0.00 0.00 88 1018.5
20260506130723 51 284 0.0 0.0 0.00 0.00 0.00 88 1018.5
20260506130220 51 281 0.0 0.0 0.00 0.00 0.00 88 1018.5
20260506125718 51 275 1.0 1.0 0.00 0.00 0.00 88 1018.3
20260506125215 51 293 0.0 0.0 0.00 0.00 0.00 88 1018.2
20260506124713 51 281 1.0 1.0 0.00 0.00 0.00 88 1018.3
20260506124211 51 295 1.0 1.0 0.00 0.00 0.00 88 1018.3
20260506123708 51 26 0.0 0.0 0.00 0.00 0.00 88 1018.3
20260506123207 51 26 0.0 0.0 0.00 0.00 0.00 88 1018.2
20260506122703 51 26 0.0 0.0 0.00 0.00 0.00 88 1018.2
20260506122201 51 26 0.0 0.0 0.00 0.00 0.00 88 1018.2
20260506121658 51 26 0.0 0.0 0.00 0.00 0.00 88 1018.2
20260506121154 51 26 0.0 0.0 0.00 0.00 0.00 88 1018.1
20260506120653 50 26 0.0 0.0 0.00 0.00 0.00 88 1018.0
20260506120150 51 26 0.0 0.0 0.00 0.00 0.00 88 1018.1
20260506115648 51 26 0.0 0.0 0.00 0.00 0.00 87 1018.2
20260506115146 51 26 0.0 0.0 0.00 0.00 0.00 87 1018.1
20260506114643 51 26 0.0 0.0 0.00 0.00 0.00 87 1018.1
20260506114141 51 26 0.0 0.0 0.00 0.00 0.00 87 1018.1
20260506113639 51 25 0.0 0.0 0.00 0.00 0.00 87 1018.0
20260506113136 51 25 0.0 0.0 0.00 0.00 0.00 87 1018.0
20260506112632 51 26 0.0 0.0 0.00 0.00 0.00 87 1017.9
20260506112130 51 26 0.0 0.0 0.00 0.00 0.00 87 1017.7
20260506111627 51 25 0.0 0.0 0.00 0.00 0.00 87 1017.7
20260506111125 51 25 0.0 0.0 0.00 0.00 0.00 87 1017.8
20260506110622 52 25 0.0 0.0 0.00 0.00 0.00 87 1017.8
20260506110119 52 27 0.0 0.0 0.00 0.00 0.00 87 1017.9
20260506105616 52 12 0.0 0.0 0.00 0.00 0.00 87 1017.9
20260506105113 52 4 0.0 0.0 0.00 0.00 0.00 86 1017.6
20260506104611 52 4 0.0 0.0 0.00 0.00 0.00 86 1017.6
20260506104108 52 4 0.0 0.0 0.00 0.00 0.00 86 1017.6
20260506103605 52 3 0.0 0.0 0.00 0.00 0.00 86 1017.7
20260506103102 52 3 0.0 0.0 0.00 0.00 0.00 86 1017.7
20260506102600 52 3 0.0 0.0 0.00 0.00 0.00 86 1017.7
20260506102057 53 3 0.0 0.0 0.00 0.00 0.00 86 1017.9
20260506101554 53 3 0.0 0.0 0.00 0.00 0.00 85 1017.6
20260506101051 53 3 0.0 0.0 0.00 0.00 0.00 85 1017.5
20260506100549 53 11 0.0 0.0 0.00 0.00 0.00 85 1017.6
20260506100047 53 11 0.0 0.0 0.00 0.00 0.00 85 1017.5
20260506095546 53 10 0.0 0.0 0.00 0.00 0.00 85 1017.5
20260506095042 53 10 0.0 0.0 0.00 0.00 0.00 84 1017.5
20260506094539 54 7 0.0 0.0 0.00 0.00 0.00 84 1017.4
20260506094037 54 336 0.0 0.0 0.00 0.00 0.00 84 1017.3
20260506093535 54 266 0.0 0.0 0.00 0.00 0.00 84 1017.3
20260506093032 54 266 0.0 0.0 0.00 0.00 0.00 84 1017.4
20260506092530 54 251 0.0 0.0 0.00 0.00 0.00 84 1017.4
20260506092027 54 259 0.0 0.0 0.00 0.00 0.00 84 1017.2
20260506091525 54 269 0.0 1.0 0.00 0.00 0.00 84 1017.2
20260506091022 54 244 1.0 1.0 0.00 0.00 0.00 85 1017.1
20260506090520 54 252 0.0 0.0 0.00 0.00 0.00 85 1017.2
20260506090016 53 310 0.0 0.0 0.00 0.00 0.00 84 1017.5
20260506085513 54 309 0.0 0.0 0.00 0.00 0.00 84 1017.5
20260506085009 54 16 0.0 0.0 0.00 0.00 0.00 84 1017.6
20260506084506 53 7 0.0 0.0 0.00 0.00 0.00 83 1017.7
20260506084002 53 7 0.0 0.0 0.00 0.00 0.00 83 1017.6
20260506083500 54 7 0.0 0.0 0.00 0.00 0.00 83 1017.5
20260506082957 54 7 0.0 0.0 0.00 0.00 0.00 82 1017.5
20260506082454 54 20 0.0 0.0 0.00 0.00 0.00 82 1017.5
20260506081949 54 21 0.0 0.0 0.00 0.00 0.00 82 1017.3
20260506081448 54 20 0.0 0.0 0.00 0.00 0.00 82 1017.6
20260506080945 54 20 0.0 0.0 0.00 0.00 0.00 81 1017.4
20260506080442 55 20 0.0 0.0 0.00 0.00 0.00 81 1017.6
20260506073426 55 276 0.0 0.0 0.00 0.00 0.00 80 1017.2
20260506072923 56 275 0.0 0.0 0.00 0.00 0.00 80 1017.1
20260506072420 56 338 1.0 1.0 0.00 0.00 0.00 80 1017.2
20260506071918 55 34 0.0 0.0 0.00 0.00 0.00 80 1016.9
20260506071416 55 27 0.0 0.0 0.00 0.00 0.00 79 1017.1
20260506070912 55 29 0.0 0.0 0.00 0.00 0.00 79 1017.1
20260506070409 56 29 0.0 0.0 0.00 0.00 0.00 79 1017.0
20260506062347 57 28 0.0 0.0 0.00 0.00 0.00 78 1016.4
20260506061842 57 28 0.0 0.0 0.00 0.00 0.00 78 1016.5
20260506061339 57 28 0.0 0.0 0.00 0.00 0.00 78 1016.7
20260506060837 57 119 0.0 0.0 0.00 0.00 0.00 78 1016.3
20260506060335 57 119 0.0 0.0 0.00 0.00 0.00 77 1016.3
20260506051307 59 309 0.0 0.0 0.00 0.00 0.00 74 1016.0
20260506050805 59 351 0.0 0.0 0.00 0.00 0.00 73 1015.9
20260506050302 59 254 0.0 0.0 0.00 0.00 0.00 73 1016.1
20260506044752 59 8 0.0 0.0 0.00 0.00 0.00 72 1015.9
20260506044250 59 30 0.0 0.0 0.00 0.00 0.00 72 1015.8
20260506043747 59 295 0.0 0.0 0.00 0.00 0.00 72 1015.7
20260506043244 60 274 1.0 1.0 0.00 0.00 0.00 71 1015.7
20260506042743 60 287 1.0 1.0 0.00 0.00 0.00 72 1015.5
20260506042241 59 58 0.0 0.0 0.00 0.00 0.00 73 1015.7
20260506041739 59 59 0.0 0.0 0.00 0.00 0.00 72 1015.7
20260506041236 59 59 0.0 0.0 0.00 0.00 0.00 71 1015.2
20260506040733 59 59 0.0 0.0 0.00 0.00 0.00 71 1015.3
20260506040230 60 59 0.0 0.0 0.00 0.00 0.00 70 1015.1
20260506035727 60 59 0.0 0.0 0.00 0.00 0.00 69 1015.2
20260506035224 60 59 0.0 0.0 0.00 0.00 0.00 68 1015.2
20260506034721 60 59 0.0 0.0 0.00 0.00 0.00 68 1015.0
20260506034218 60 59 0.0 0.0 0.00 0.00 0.00 67 1014.9
20260506033715 60 59 0.0 0.0 0.00 0.00 0.00 66 1014.7
20260506033212 60 60 0.0 0.0 0.00 0.00 0.00 65 1014.8
20260506032709 61 60 0.0 0.0 0.00 0.00 0.00 65 1014.8
20260506032206 61 60 0.0 0.0 0.00 0.00 0.00 64 1014.6
20260506031703 61 60 0.0 0.0 0.00 0.00 0.00 63 1014.5
20260506031200 62 57 0.0 1.0 0.00 0.00 0.00 62 1014.4
20260506030658 62 63 1.0 1.0 0.00 0.00 0.00 62 1014.3
20260506030155 62 53 0.0 0.0 0.00 0.00 0.00 61 1014.5
20260506025646 63 86 1.0 1.0 0.00 0.00 0.00 60 1014.3
20260506025142 63 23 0.0 0.0 0.00 0.00 0.00 59 1014.4
20260506024640 64 38 1.0 1.0 0.00 0.00 0.00 59 1014.2
20260506024136 64 358 0.0 0.0 0.00 0.00 0.00 59 1014.3
20260506023633 64 54 2.0 2.0 0.00 0.00 0.00 59 1014.0
20260506023130 64 17 0.0 0.0 0.00 0.00 0.00 58 1014.1
20260506022627 64 329 0.0 0.0 0.00 0.00 0.00 57 1014.1
20260506022125 65 329 1.0 1.0 0.00 0.00 0.00 55 1013.9
20260506021622 65 28 1.0 1.0 0.00 0.00 0.00 54 1013.9
20260506021119 66 43 0.0 0.0 0.00 0.00 0.00 53 1013.9
20260506020616 66 43 0.0 0.0 0.00 0.00 0.00 52 1013.9
20260506020114 66 52 0.0 1.0 0.00 0.00 0.00 51 1013.9
20260506015611 67 58 1.0 1.0 0.00 0.00 0.00 50 1013.8
20260506015108 68 342 1.0 1.0 0.00 0.00 0.00 50 1013.6
20260506014606 67 11 0.0 0.0 0.00 0.00 0.00 49 1013.9
20260506014101 67 327 1.0 1.0 0.00 0.00 0.00 50 1013.8
20260506013559 67 9 1.0 1.0 0.00 0.00 0.00 50 1013.7
20260506013056 67 75 1.0 2.0 0.00 0.00 0.00 50 1013.7
20260506012552 67 150 1.0 1.0 0.00 0.00 0.00 49 1013.6
20260506012049 67 18 4.0 5.0 0.00 0.00 0.00 49 1013.9
20260506011547 67 62 2.0 2.0 0.00 0.00 0.00 49 1013.8
20260506011043 67 248 1.0 1.0 0.00 0.00 0.00 48 1013.9
20260506010542 67 300 1.0 1.0 0.00 0.00 0.00 49 1013.8
20260506010038 67 281 1.0 1.0 0.00 0.00 0.00 48 1013.7
20260506005535 67 34 1.0 1.0 0.00 0.00 0.00 49 1013.9
20260506005031 67 66 1.0 2.0 0.00 0.00 0.00 48 1013.9
20260506004529 67 53 1.0 1.0 0.00 0.00 0.00 49 1013.9
20260506004025 68 234 1.0 2.0 0.00 0.00 0.00 49 1013.8
20260506003522 68 270 1.0 1.0 0.00 0.00 0.00 49 1013.6
20260506003018 67 24 0.0 0.0 0.00 0.00 0.00 48 1013.7
20260506002514 68 229 3.0 4.0 0.00 0.00 0.00 47 1013.8
20260506002010 69 288 1.0 1.0 0.00 0.00 0.00 45 1014.0
20260506001506 69 307 3.0 4.0 0.00 0.00 0.00 45 1013.6
20260506001004 69 45 1.0 1.0 0.00 0.00 0.00 46 1013.6
20260506000501 69 232 0.0 0.0 0.00 0.00 0.00 46 1013.7
20260505235958 70 257 4.0 5.0 0.00 0.00 0.00 45 1013.9
20260505235456 69 248 1.0 1.0 0.00 0.00 0.00 45 1013.8
20260505234953 69 35 0.0 0.0 0.00 0.00 0.00 45 1013.9
20260505234450 71 281 1.0 2.0 0.00 0.00 0.00 46 1013.7
20260505233947 69 24 1.0 1.0 0.00 0.00 0.00 45 1013.8
20260505233444 70 292 7.0 7.0 0.00 0.00 0.00 44 1013.9
20260505232942 69 143 0.0 1.0 0.00 0.00 0.00 47 1013.9
20260505232440 69 271 3.0 5.0 0.00 0.00 0.00 48 1013.8
20260505231936 69 290 6.0 7.0 0.00 0.00 0.00 46 1013.9
20260505231433 69 259 3.0 5.0 0.00 0.00 0.00 45 1013.9
20260505230932 70 31 2.0 4.0 0.00 0.00 0.00 44 1013.7